Location: New York
(40.7140°N, 74.0060°W)
Time: 13:19:14
(UTC-05:00)

ISS - Visible Passes

Search period start: 21 January 2018 00:00
Search period end: 31 January 2018 00:00
Orbit: 402 x 407 km, 51.6° (Epoch: 22 January)

Date Brightness Start Highest point End Pass type
(mag) Time Alt. Az. Time Alt. Az. Time Alt. Az.
23 Jan -1.8 18:29:41 10° S 18:31:10 16° SSE 18:31:10 16° SSE visible
24 Jan -1.9 19:12:29 10° SW 19:14:08 28° SW 19:14:08 28° SW visible
25 Jan -3.3 18:20:23 10° SSW 18:23:28 41° SE 18:24:19 33° E visible
26 Jan -2.6 19:04:25 10° WSW 19:07:05 39° NW 19:07:05 39° NW visible
27 Jan -3.8 18:11:53 10° WSW 18:15:09 79° NW 18:17:05 22° NE visible
27 Jan -0.3 19:49:43 10° WNW 19:49:45 10° WNW 19:49:45 10° WNW visible
28 Jan -2.0 18:56:44 10° W 18:59:27 24° NNW 18:59:40 24° NNW visible
29 Jan -2.6 18:03:52 10° W 18:06:55 36° NNW 18:09:32 13° NE visible
30 Jan -1.6 18:49:15 10° WNW 18:51:25 16° NNW 18:51:59 16° N visible
